Danville, VA

2:01 AM EDT on August 21, 2017 (GMT -0400)
Danville Regional

Weather History for KDAN - July, 2013

Change the Weather History Date:

Friday, July 19, 2013

  Actual Average Record
Temperature  
Mean Temperature 83 °F 78 °F  
Max Temperature 92 °F 88 °F 100 °F (1977)
Min Temperature 74 °F 69 °F 55 °F (1969)
Degree Days  
Heating Degree Days 0 0  
Month to date heating degree days 0 0  
Since 1 June heating degree days 0 3  
Since 1 July heating degree days 0 0  
Cooling Degree Days 18 13  
Month to date cooling degree days 273 247  
Year to date cooling degree days 746 688  
Since 1 June cooling degree days 584 544  
Growing Degree Days 32 (Base 50)    
Moisture  
Dew Point 73 °F    
Average Humidity 75    
Maximum Humidity 94    
Minimum Humidity 56    
Precipitation  
Precipitation 0.00 in 0.17 in 1.62 in (1958)
Month to date precipitation 7.88 2.87  
Year to date precipitation 34.03 24.60  
Snow  
Snow 0.00 in - - ()
Month to date snowfall 0.0  
Since 1 June snowfall 0.0  
Since 1 July snowfall 0.0  
Snow Depth 0.00 in    
Sea Level Pressure  
Sea Level Pressure 30.02 in    
Wind  
Wind Speed 6 mph (SSW)    
Max Wind Speed 16 mph    
Max Gust Speed 20 mph    
Visibility 8 miles    
Events      
T = Trace of Precipitation, MM = Missing Value Source: NWS Daily Summary

Daily Weather History Graph

Daily Weather History Graph

Search for Another Location

Airport or City:

Trip Planner

Search our weather history database for the weather conditions in past years. The results will help you decide how hot, cold, wet, or windy it might be!

Date:

Astronomy

Jul. 19, 2013 Rise Set
Actual Time 6:13 AM EDT 8:33 PM EDT
Civil Twilight 5:44 AM EDT 9:02 PM EDT
Nautical Twilight 5:07 AM EDT 9:38 PM EDT
Astronomical Twilight 4:28 AM EDT 10:18 PM EDT
Moon 5:34 PM EDT (7/19) 2:52 AM EDT (7/19)
Length of Visible Light 15h 18m
Length of Day
14h 19m
Waxing Gibbous, 86% of the Moon is Illuminated
Jul 19
Waxing Gibbous
Jul 22
Full
Jul 29
Last Quarter
Aug 6
New
Aug 14
First Quarter

Hourly Weather History & Observations

Time (EDT) Temp. Heat Index Dew Point Humidity Pressure Visibility Wind Dir Wind Speed Gust Speed Precip Events Conditions
12:53 AM 75.9 °F - 73.0 °F 91% 30.07 in 7.0 mi South 3.5 mph - N/A   Clear
1:53 AM 75.0 °F - 72.0 °F 90% 30.06 in 6.0 mi SSW 3.5 mph - N/A   Clear
2:53 AM 75.0 °F - 72.0 °F 90% 30.05 in 6.0 mi SW 3.5 mph - N/A   Clear
3:53 AM 75.0 °F - 72.0 °F 90% 30.04 in 4.0 mi Calm Calm - N/A   Clear
4:53 AM 73.9 °F - 72.0 °F 93% 30.04 in 3.0 mi SSW 3.5 mph - N/A   Clear
5:53 AM 73.9 °F - 72.0 °F 93% 30.05 in 3.0 mi SW 4.6 mph - N/A   Clear
6:16 AM 73.4 °F - 71.6 °F 94% 30.08 in 2.5 mi SSW 3.5 mph - N/A   Clear
6:53 AM 73.9 °F - 72.0 °F 93% 30.05 in 2.0 mi SSW 3.5 mph - N/A   Clear
7:42 AM 75.2 °F - 73.4 °F 94% 30.09 in 3.0 mi SW 4.6 mph - N/A   Clear
7:53 AM 75.9 °F - 73.0 °F 91% 30.06 in 4.0 mi SSW 4.6 mph - N/A   Clear
8:53 AM 81.0 °F 86.2 °F 73.9 °F 79% 30.06 in 8.0 mi SW 4.6 mph - N/A   Clear
9:53 AM 84.0 °F 91.9 °F 75.0 °F 74% 30.06 in 10.0 mi SW 4.6 mph - N/A   Clear
10:53 AM 87.1 °F 96.3 °F 75.0 °F 67% 30.06 in 10.0 mi SW 9.2 mph - N/A   Clear
11:53 AM 88.0 °F 96.5 °F 73.9 °F 63% 30.06 in 10.0 mi SW 10.4 mph 16.1 mph N/A   Clear
12:53 PM 90.0 °F 97.9 °F 73.0 °F 57% 30.04 in 10.0 mi SSW 6.9 mph 19.6 mph N/A   Partly Cloudy
1:53 PM 90.0 °F 97.9 °F 73.0 °F 57% 30.02 in 10.0 mi SW 10.4 mph 19.6 mph N/A   Clear
2:53 PM 91.0 °F 99.3 °F 73.0 °F 55% 30.00 in 10.0 mi SSW 9.2 mph - N/A   Partly Cloudy
3:53 PM 91.9 °F 101.3 °F 73.9 °F 55% 29.97 in 10.0 mi SSW 10.4 mph 18.4 mph N/A   Partly Cloudy
4:53 PM 90.0 °F 99.0 °F 73.9 °F 59% 29.96 in 10.0 mi SW 10.4 mph - N/A   Partly Cloudy
5:53 PM 89.1 °F 98.0 °F 73.9 °F 61% 29.96 in 10.0 mi SSW 8.1 mph - N/A   Clear
6:53 PM 87.1 °F 95.4 °F 73.9 °F 65% 29.96 in 10.0 mi SSW 5.8 mph - N/A   Partly Cloudy
7:53 PM 82.9 °F 90.2 °F 75.0 °F 77% 29.96 in 10.0 mi SSW 3.5 mph - N/A   Clear
8:53 PM 82.0 °F 87.9 °F 73.9 °F 76% 29.96 in 10.0 mi SSW 5.8 mph - N/A   Clear
9:53 PM 80.1 °F 84.5 °F 73.9 °F 81% 29.99 in 10.0 mi SW 4.6 mph - N/A   Clear
10:53 PM 79.0 °F - 73.0 °F 82% 30.00 in 10.0 mi SSW 3.5 mph - N/A   Clear
11:53 PM 79.0 °F - 73.0 °F 82% 29.99 in 10.0 mi SSW 4.6 mph - N/A   Clear